Regional Weather Roundup
Issued by NWS Sterling, VA

Home | Current Version | Previous Version | Graphics & Text | Print | Product List | Glossary On
Versions: 1 2 3 4 5 6 7 8 9 10 11 12 13 14 15 16 17 18 19 20 21 22 23 24 25 26 27
000
ASUS41 KLWX 261610
RWRLWX

REGIONAL WEATHER ROUNDUP
NATIONAL WEATHER SERVICE BALTIMORE MD/WASHINGTON DC
1200 PM EDT THU MAY 26 2016

Note: "FAIR" indicates few or no clouds below 12,000 feet
with no significant weather and/or obstructions to visibility.
 TC=TEMPERATURE CELSIUS

 * =Non NWS site. Station does not report precipitation (e.g. rain,
    snow, etc.), thunder, or fog.

DCZ001-MDZ009-015-VAZ040>042-051-053>054-261700-
WASHINGTON METRO

CITY           SKY/WX    TMP DP  RH WIND       PRES   REMARKS
WASHINGTON NAT PTSUNNY   81  63  54 S8        30.09F
DULLES         FAIR      83  61  47 VRB3      30.10S
ANDREWS AFB    MOSUNNY   84  62  47 S6        30.09S
FT BELVOIR     FAIR      82  63  52 SE6       30.09F
QUANTICO       FAIR      76  65  68 S5        30.11S
COLLEGE PARK*  FAIR      82  57  42 S5        30.09S
LEESBURG*      FAIR      86  66  51 SW6       30.10F
MANASSAS*      SUNNY     82  63  51 S6        30.09F

$$

MDZ006>007-011-014-261700-
BALTIMORE METRO

CITY           SKY/WX    TMP DP  RH WIND       PRES   REMARKS
BWI AIRPORT    PTSUNNY   86  59  39 S10       30.08F
MD SCIENCE CTR   N/A     82  62  50 MISG      30.09F
MARTIN STATE   MOSUNNY   79  66  65 SE5       30.11S
ANNAPOLIS      SUNNY     73  64  73 SE12      30.10S
FORT MEADE*    SUNNY     84  59  42 S9        30.11S

$$

MDZ012-015-019>023-261700-
MARYLAND EASTERN SHORE

CITY           SKY/WX    TMP DP  RH WIND       PRES   REMARKS
OCEAN CITY     SUNNY     74  65  73 S9        30.13S
SALISBURY      SUNNY     86  54  33 SW9       30.12S
BAY BRIDGE AP* SUNNY     81  61  50 S7        30.10S
CAMBRIDGE*     SUNNY     82  59  44 S6        30.11R
EASTON*        MOSUNNY   86  66  51 SW8       30.14S

$$

MDZ017>025-261700-
SOUTHERN MARYLAND

CITY           SKY/WX    TMP DP  RH WIND       PRES   REMARKS
PATUXENT RIVER PTSUNNY   80  65  59 SE8       30.10S
ST INIGOES     SUNNY     83  64  52 SE6       30.10S
LEONARDTOWN*   SUNNY     82  61  47 SW7       30.12F

$$

MDZ003>005-261700-
NORTH CENTRAL MARYLAND

CITY           SKY/WX    TMP DP  RH WIND       PRES   REMARKS
FREDERICK*     SUNNY     82  66  57 SW5       30.12S
HAGERSTOWN APT SUNNY     82  58  43 VRB5      30.10F
WESTMINSTER*   SUNNY     88  82  84 S6        30.10S HX 108

$$

MDZ501>502-261700-
WESTERN MARYLAND

CITY           SKY/WX    TMP DP  RH WIND       PRES   REMARKS
OAKLAND*       CLOUDY    70  57  64 SW8       30.20S
CUMBERLAND*    CLOUDY    73  61  64 S3        30.15S

$$

VAZ025>031-261700-
SHENANDOAH VALLEY

CITY           SKY/WX    TMP DP  RH WIND       PRES   REMARKS
WINCHESTER*    PTSUNNY   82  61  47 SW5       30.12S
FRONT ROYAL*   FAIR      79  63  57 SW7       30.11S
LURAY*         FAIR      77  63  61 SW6       30.13S
NEW MARKET*    FAIR      77  64  65 SE3       30.12F
STAUNTON*      FAIR      77  62  59 SW8       30.17F
WAYNESBORO*    FAIR      77  60  56 SW8       30.17S

$$

WVZ021-048>050-054>055-261700-
EASTERN WEST VIRGINIA PANHANDLE

CITY           SKY/WX    TMP DP  RH WIND       PRES   REMARKS
MARTINSBURG    FAIR      81  62  52 CALM      30.10S
PETERSBURG*    FAIR      82  66  58 E7        30.12F

$$

VAZ036>039-050-261700-
CENTRAL FOOTHILLS

CITY           SKY/WX    TMP DP  RH WIND       PRES   REMARKS
CHARLOTTESVILL FAIR      82  62  50 SW6       30.11F
CULPEPER*      FAIR      85  65  51 S5        30.10F
ORANGE*        FAIR      86  63  45 SW7       30.12F
GORDONSVILLE*  FAIR      85  66  52 SW7       30.10F
WARRENTON*     FAIR      84  58  40 S6        30.10S

$$

VAZ055>057-261700-
NORTH AND CENTRAL PIEDMONT

CITY           SKY/WX    TMP DP  RH WIND       PRES   REMARKS
FREDERICKSBRG* NOT AVBL
STAFFORD*      FAIR      84  62  47 SW6       30.14S

$$

NCZ024-NYZ072-PAZ021-071-VAZ022-071-261700-
OTHER REGIONAL OBSERVATIONS

CITY           SKY/WX    TMP DP  RH WIND       PRES   REMARKS
NEW YORK CITY  SUNNY     86  55  34 VRB3      30.11S
PHILADELPHIA   PTSUNNY   83  57  41 S7        30.10F
PITTSBURGH     CLOUDY    77  60  55 SW14      30.09S
ROANOKE        FAIR      77  66  68 CALM      30.19S
RICHMOND       PTSUNNY   84  63  49 SW14      30.12S
RALEIGH        MOSUNNY   85  62  46 W6        30.17S

$$

ANZ530>537-261700-
MARINE OBSERVATIONS

STATION/POSITION TIME  TEMP    WIND        PRES
                       AIR SEA DIR/SP/G
                 (UTC) (F)     (DEG/KT/KT) (MB)
THOMAS PT LIGHT  1600   71 66  160/  9/  9 1020.5F
BALT KEY BRIDGE  1500   71     110/  8/  9 1018.9F
COVE POINT       1500   68     190/ 10/ 11 1020.1F
LEWISETTA        1500   81 69  200/  4/  5 1019.2F
SOLOMONS ISLAND  1500   74 64   90/  5/  6   N/A
PINEY POINT      1500          120/  6/  6   N/A

$$





USA.gov is the U.S. government's official web portal to all federal, state and local government web resources and services.